Miscellaneous Local Product
Issued by NWS North Platte, NE

Home | Current Version | Previous Version | Text Only | Print | Product List | Glossary On
Versions: 1 2 3 4 5 6 7 8 9 10 11 12 13 14 15 16 17 18 19 20 21 22 23 24 25 26 27 28 29 30 31 32 33 34 35 36 37 38 39 40 41 42 43 44 45 46 47 48 49 50
000
AXUS43 KLBF 271210
MISLBF


WESTERN AND NORTH CENTRAL NEBRASKA HOURLY WEATHER ROUNDUP
NATIONAL WEATHER SERVICE NORTH PLATTE NE
700 AM CDT TUE JUN 27 2017

NOTE: "FAIR" INDICATES FEW OR NO CLOUDS BELOW 12,000 FEET WITH NO
SIGNIFICANT WEATHER AND/OR OBSTRUCTIONS TO VISIBILITY.

NOTE: STATIONS NOT REPORTING VARIABLES SUCH AS SKY/WEATHER OR
PRESSURE ARE PROVIDED BY RAWS AND APRS NETWORKS AND ARE NOT UNDER
NATIONAL WEATHER SERVICE QUALITY CONTROL.

...OBSERVATIONS IN AND NEAR THE EASTERN PANHANDLE OF NEBRASKA...

CITY           SKY/WX    TMP DP  RH WIND       PRES   REMARKS
PINE RIDGE     CLEAR     62  54  74 S38G49    29.85F
GORDON         FAIR      59  53  81 S13G23    29.92F
CHADRON        PTCLDY    64  54  69 S18G30    29.84F
ALLIANCE       CLOUDY    60  55  83 S21G33    29.96F
SIDNEY         CLOUDY    59  57  93 S18G28    30.01F
CRESCENT LAKE    N/A     60  57  90 S13G22      N/A
$$

...OBSERVATIONS IN NORTHERN NEBRASKA AND FAR SOUTHERN SOUTH DAKOTA...

CITY           SKY/WX    TMP DP  RH WIND       PRES   REMARKS
WINNER         FAIR      59  51  75 S18G26    29.96F
VALENTINE      CLEAR     59  51  75 S14       29.97F
THEDFORD       MOCLDY    60  56  88 S13G21    30.03S
AINSWORTH      CLEAR     55  54  95 S13G18    30.01F
O`NEILL        PTCLDY    50  47  90 S8        30.05F
ORD            CLOUDY    57  54  89 S9        30.05F FOG
BROKEN BOW     MOCLDY    58  55  90 S13       30.04F
VALENTINE NWR    N/A     52  51  95 S10         N/A
HALSEY           N/A     57  54  91 S12G18      N/A
BUTTE            N/A     52  45  77 S7          N/A
CHAMBERS         N/A     54  53  95 CALM        N/A
EWING            N/A     52  49  90 CALM        N/A
$$

...OBSERVATIONS IN SOUTHWEST NEBRASKA AND FAR NORTHEAST COLORADO...

CITY           SKY/WX    TMP DP  RH WIND       PRES   REMARKS
WRAY           FAIR     N/A N/A N/A SE6       30.03F HAZE
IMPERIAL       MOCLDY    59  57  93 S10       30.01F
OGALLALA       CLOUDY    64  58  83 S10       30.02F
NORTH PLATTE   PTCLDY    61  57  87 SE12      30.02F
MCCOOK         CLOUDY    61  60  97 SE9       30.02F
LEXINGTON      CLEAR     59  56  91 SE10      30.04F
STAPLETON        N/A     57  55  93 CALM        N/A
GOTHENBURG       N/A     58  54  86 SE5         N/A
CALLAWAY         N/A     57  56  96 S16         N/A
$$

...OBSERVATIONS IN CENTRAL LINCOLN COUNTY AREA...

CITY           SKY/WX    TMP DP  RH WIND       PRES   REMARKS
N.P. AIRPORT   PTCLDY    61  57  87 SE12      30.02F
N.P. DOWNTOWN    N/A     61  58  88 CALM        N/A
N.P. SOUTHEAST   N/A     61  57  88 SE5G12      N/A
N.P. HILLCREST   N/A     61  58  90 SE12        N/A
$$

...SOME OBSERVATIONS FROM AROUND THE REGION...

CITY           SKY/WX    TMP DP  RH WIND       PRES   REMARKS
DENVER         CLOUDY    59  48  67 CALM      30.00F
LIMON          FOG       54  54 100 SE8       30.07F VSB<1/4
ASPEN          CLOUDY    50  33  52 VRB6      30.22R
LARAMIE        CLOUDY    52  43  71 S7        30.10R
CASPER         PTCLDY    70  38  31 SW14      29.90F
CHEYENNE       FOG       54  53  97 S9        30.03F VSB 1/4
SCOTTSBLUFF    CLOUDY    63  55  75 SE17      29.94F
GRAND ISLAND   MOCLDY    57  57 100 SE8       30.08S FOG
OMAHA          MOSUNNY   57  49  74 SE5       30.11F
SIOUX FALLS    MOSUNNY   56  44  64 S10       30.07F
PIERRE         CLOUDY    55  44  66 SE13      29.91F
RAPID CITY     CLEAR     60  50  69 SE15      29.82F
BISMARCK       CLOUDY    59  41  51 SE12      29.84F
KANSAS CITY    SUNNY     58  56  93 SE5       30.12S
HILL CITY      CLOUDY    62  61  96 SE7       30.04S FOG
WICHITA        CLOUDY    65  64  97 SE9       30.05S
DODGE CITY     CLEAR     66  64  93 SE12      30.01S FOG
OKLAHOMA CITY  CLOUDY    67  63  87 S5        30.07R
DALLAS         MOCLDY    75  71  87 E3        30.02R
AMARILLO       PTCLDY    67  62  84 S13       30.12R
$$




USA.gov is the U.S. government's official web portal to all federal, state and local government web resources and services.